| time (UTC) | temp C | wind direction | speed KPH | gust KPH | rain 1hr cm | rain 24hr cm | rain mn cm | humidity % | barometer mb |
| 20260508070059 | 4 | 349 | 0.0 | 3.2 | 0.00 | 0.13 | 0.10 | 90 | 1012.8 |
| 20260508064557 | 4 | 55 | 0.0 | 9.7 | 0.03 | 0.23 | 0.10 | 90 | 1012.7 |
| 20260508063058 | 5 | 4 | 3.2 | 11.3 | 0.05 | 0.23 | 0.10 | 89 | 1013.0 |
| 20260508061551 | 5 | 39 | 3.2 | 9.7 | 0.08 | 0.23 | 0.10 | 89 | 1012.7 |
| 20260508054628 | 6 | 18 | 0.0 | 1.6 | 0.08 | 0.23 | 0.08 | 85 | 1013.1 |
| 20260508053050 | 6 | 42 | 3.2 | 11.3 | 0.05 | 0.20 | 0.05 | 81 | 1013.1 |
| 20260508051538 | 7 | 270 | 3.2 | 16.1 | 0.00 | 0.15 | 0.00 | 72 | 1012.8 |
| 20260508050033 | 8 | 319 | 1.6 | 6.4 | 0.00 | 0.15 | 0.00 | 65 | 1011.8 |
| 20260508044532 | 8 | 37 | 0.0 | 1.6 | 0.00 | 0.15 | 0.00 | 63 | 1010.6 |
| 20260508043034 | 8 | 41 | 0.0 | 1.6 | 0.00 | 0.15 | 0.00 | 61 | 1010.5 |
| 20260508041526 | 8 | 41 | 0.0 | 1.6 | 0.00 | 0.15 | 0.00 | 60 | 1010.5 |
| 20260508040031 | 8 | 29 | 0.0 | 0.0 | 0.00 | 0.15 | 0.00 | 60 | 1011.0 |
| 20260508034533 | 8 | 29 | 0.0 | 0.0 | 0.00 | 0.15 | 0.15 | 59 | 1010.9 |
| 20260508033029 | 8 | 29 | 0.0 | 0.0 | 0.00 | 0.15 | 0.15 | 58 | 1010.7 |
| 20260508031521 | 8 | 29 | 0.0 | 1.6 | 0.00 | 0.15 | 0.15 | 58 | 1010.8 |
| 20260508030022 | 8 | 29 | 0.0 | 0.0 | 0.00 | 0.15 | 0.15 | 58 | 1011.0 |
| 20260508024524 | 8 | 28 | 0.0 | 0.0 | 0.00 | 0.15 | 0.15 | 58 | 1011.0 |
| 20260508023019 | 8 | 28 | 0.0 | 0.0 | 0.00 | 0.15 | 0.15 | 58 | 1011.0 |
| 20260508021520 | 8 | 28 | 0.0 | 0.0 | 0.00 | 0.15 | 0.15 | 58 | 1011.0 |
| 20260508020019 | 8 | 29 | 0.0 | 0.0 | 0.00 | 0.15 | 0.15 | 58 | 1010.8 |
| 20260508014519 | 8 | 53 | 0.0 | 1.6 | 0.00 | 0.15 | 0.15 | 58 | 1010.8 |
| 20260508013018 | 8 | 53 | 0.0 | 0.0 | 0.00 | 0.15 | 0.15 | 58 | 1010.7 |
| 20260508011518 | 9 | 53 | 0.0 | 0.0 | 0.00 | 0.15 | 0.15 | 57 | 1010.7 |
| 20260508010027 | 9 | 53 | 0.0 | 1.6 | 0.00 | 0.15 | 0.15 | 56 | 1010.6 |
| 20260508004524 | 10 | 52 | 0.0 | 1.6 | 0.00 | 0.28 | 0.15 | 56 | 1010.5 |
| 20260508003017 | 10 | 39 | 0.0 | 1.6 | 0.00 | 0.28 | 0.15 | 54 | 1010.4 |
| 20260508001516 | 10 | 36 | 0.0 | 1.6 | 0.00 | 0.28 | 0.15 | 53 | 1010.3 |
| 20260508000016 | 11 | 301 | 0.0 | 3.2 | 0.00 | 0.28 | 0.15 | 52 | 1010.1 |
| 20260507234516 | 11 | 10 | 0.0 | 3.2 | 0.00 | 0.28 | 0.15 | 50 | 1009.9 |
| 20260507233114 | 12 | 45 | 1.6 | 11.3 | 0.00 | 0.28 | 0.15 | 48 | 1009.9 |
| 20260507231513 | 12 | 43 | 1.6 | 8.0 | 0.00 | 0.28 | 0.15 | 47 | 1009.7 |
| 20260507230021 | 12 | 36 | 0.0 | 6.4 | 0.00 | 0.28 | 0.15 | 48 | 1009.7 |
| 20260507224516 | 12 | 27 | 1.6 | 6.4 | 0.00 | 0.28 | 0.15 | 48 | 1009.7 |
| 20260507223011 | 12 | 53 | 0.0 | 8.0 | 0.00 | 0.28 | 0.15 | 47 | 1009.5 |
| 20260507221511 | 12 | 41 | 3.2 | 11.3 | 0.00 | 0.28 | 0.15 | 47 | 1009.7 |
| 20260507220010 | 13 | 37 | 4.8 | 16.1 | 0.00 | 0.28 | 0.15 | 46 | 1009.7 |
| 20260507214515 | 13 | 316 | 1.6 | 11.3 | 0.00 | 0.28 | 0.15 | 46 | 1009.7 |
| 20260507213008 | 12 | 33 | 3.2 | 20.9 | 0.00 | 0.28 | 0.15 | 45 | 1009.6 |
| 20260507211508 | 12 | 30 | 6.4 | 19.3 | 0.00 | 0.28 | 0.15 | 44 | 1009.4 |
| 20260507210007 | 13 | 316 | 8.0 | 22.5 | 0.00 | 0.28 | 0.15 | 43 | 1009.6 |
| 20260507204505 | 14 | 347 | 4.8 | 19.3 | 0.00 | 0.28 | 0.15 | 41 | 1009.3 |
| 20260507203003 | 14 | 301 | 4.8 | 20.9 | 0.00 | 0.28 | 0.15 | 44 | 1009.4 |
| 20260507201502 | 14 | 322 | 6.4 | 14.5 | 0.00 | 0.28 | 0.15 | 43 | 1009.3 |
| 20260507194600 | 13 | 307 | 6.4 | 24.1 | 0.00 | 0.33 | 0.15 | 43 | 1009.4 |
| 20260507193058 | 13 | 14 | 6.4 | 16.1 | 0.00 | 0.33 | 0.15 | 46 | 1009.4 |
| 20260507191559 | 12 | 16 | 1.6 | 16.1 | 0.00 | 0.33 | 0.15 | 46 | 1009.9 |
| 20260507190057 | 13 | 240 | 4.8 | 12.9 | 0.00 | 0.33 | 0.15 | 46 | 1009.9 |
| 20260507184555 | 13 | 309 | 4.8 | 16.1 | 0.00 | 0.48 | 0.15 | 46 | 1010.0 |
| 20260507183053 | 13 | 8 | 3.2 | 17.7 | 0.00 | 0.48 | 0.15 | 48 | 1009.9 |
| 20260507181551 | 13 | 311 | 3.2 | 17.7 | 0.00 | 0.48 | 0.15 | 47 | 1010.2 |
| 20260507180057 | 12 | 338 | 4.8 | 16.1 | 0.00 | 0.48 | 0.15 | 48 | 1010.4 |
| 20260507174555 | 12 | 42 | 6.4 | 14.5 | 0.00 | 0.51 | 0.15 | 48 | 1010.7 |
| 20260507173047 | 12 | 52 | 3.2 | 11.3 | 0.00 | 0.51 | 0.15 | 51 | 1010.9 |
| 20260507171558 | 12 | 8 | 4.8 | 16.1 | 0.00 | 0.51 | 0.15 | 50 | 1011.1 |
| 20260507170042 | 12 | 359 | 9.7 | 20.9 | 0.00 | 0.51 | 0.15 | 49 | 1011.2 |
| 20260507164546 | 11 | 295 | 4.8 | 17.7 | 0.00 | 0.64 | 0.15 | 50 | 1011.4 |
| 20260507163043 | 11 | 63 | 4.8 | 22.5 | 0.00 | 0.64 | 0.15 | 51 | 1011.8 |
| 20260507161540 | 11 | 326 | 8.0 | 17.7 | 0.00 | 0.64 | 0.15 | 51 | 1011.8 |
| 20260507160044 | 11 | 24 | 3.2 | 12.9 | 0.00 | 0.64 | 0.15 | 55 | 1012.0 |
| 20260507154534 | 11 | 31 | 0.0 | 11.3 | 0.00 | 0.69 | 0.15 | 52 | 1012.1 |
| 20260507153032 | 11 | 196 | 1.6 | 12.9 | 0.00 | 0.69 | 0.15 | 53 | 1012.2 |
| 20260507151527 | 10 | 340 | 4.8 | 14.5 | 0.00 | 0.69 | 0.15 | 54 | 1012.4 |
| 20260507150029 | 10 | 312 | 3.2 | 11.3 | 0.00 | 0.69 | 0.15 | 60 | 1012.5 |
| 20260507144531 | 9 | 293 | 4.8 | 16.1 | 0.00 | 0.69 | 0.15 | 59 | 1012.5 |
| 20260507143021 | 9 | 20 | 4.8 | 17.7 | 0.00 | 0.69 | 0.15 | 61 | 1012.5 |
| 20260507141521 | 8 | 295 | 8.0 | 16.1 | 0.00 | 0.69 | 0.15 | 63 | 1012.4 |
| 20260507140014 | 8 | 39 | 8.0 | 14.5 | 0.00 | 0.69 | 0.15 | 68 | 1012.7 |
| 20260507134513 | 8 | 342 | 3.2 | 11.3 | 0.00 | 0.69 | 0.15 | 71 | 1012.5 |
| 20260507133012 | 7 | 14 | 8.0 | 14.5 | 0.00 | 0.69 | 0.15 | 73 | 1012.6 |
| 20260507131508 | 7 | 49 | 6.4 | 12.9 | 0.00 | 0.69 | 0.15 | 75 | 1012.4 |
| 20260507130020 | 7 | 326 | 3.2 | 14.5 | 0.00 | 0.69 | 0.15 | 80 | 1012.1 |
| 20260507124506 | 6 | 321 | 6.4 | 14.5 | 0.00 | 0.69 | 0.15 | 80 | 1012.0 |
| 20260507123005 | 6 | 282 | 4.8 | 22.5 | 0.00 | 0.69 | 0.15 | 81 | 1011.9 |
| 20260507121601 | 6 | 333 | 4.8 | 16.1 | 0.00 | 0.69 | 0.15 | 86 | 1012.0 |
| 20260507120058 | 6 | 60 | 4.8 | 16.1 | 0.00 | 0.69 | 0.15 | 88 | 1011.9 |
| 20260507114612 | 6 | 301 | 6.4 | 14.5 | 0.00 | 0.69 | 0.15 | 90 | 1011.8 |
| 20260507113057 | 6 | 18 | 6.4 | 12.9 | 0.00 | 0.69 | 0.15 | 92 | 1011.8 |
| 20260507111553 | 5 | 41 | 1.6 | 9.7 | 0.00 | 0.69 | 0.15 | 94 | 1011.5 |
| 20260507110051 | 5 | 330 | 3.2 | 12.9 | 0.00 | 0.69 | 0.15 | 94 | 1011.3 |
| 20260507104554 | 5 | 308 | 3.2 | 12.9 | 0.00 | 0.69 | 0.15 | 95 | 1011.0 |
| 20260507103047 | 5 | 46 | 4.8 | 9.7 | 0.00 | 0.69 | 0.15 | 95 | 1010.7 |
| 20260507101549 | 5 | 2 | 1.6 | 14.5 | 0.00 | 0.69 | 0.15 | 95 | 1010.7 |
| 20260507100047 | 5 | 37 | 3.2 | 9.7 | 0.00 | 0.69 | 0.15 | 95 | 1010.6 |
| 20260507094545 | 5 | 304 | 4.8 | 0.0 | 0.00 | 0.00 | 0.15 | 95 | 1010.6 |
| 20260507093045 | 5 | 302 | 1.6 | 8.0 | 0.00 | 0.69 | 0.15 | 95 | 1010.4 |
| 20260507091545 | 5 | 15 | 3.2 | 9.7 | 0.00 | 0.69 | 0.15 | 95 | 1010.3 |
| 20260507090041 | 6 | 326 | 3.2 | 12.9 | 0.00 | 0.69 | 0.15 | 95 | 1010.1 |
| 20260507084541 | 6 | 49 | 4.8 | 8.0 | 0.00 | 0.69 | 0.15 | 95 | 1010.3 |
| 20260507083039 | 6 | 23 | 3.2 | 14.5 | 0.00 | 0.69 | 0.15 | 95 | 1010.4 |
| 20260507081537 | 6 | 321 | 3.2 | 12.9 | 0.00 | 0.69 | 0.15 | 95 | 1010.4 |
| 20260507080037 | 6 | 40 | 4.8 | 11.3 | 0.03 | 0.69 | 0.15 | 95 | 1010.3 |
| 20260507074537 | 6 | 337 | 3.2 | 16.1 | 0.08 | 0.69 | 0.15 | 95 | 1010.4 |
| 20260507073036 | 6 | 39 | 4.8 | 16.1 | 0.08 | 0.69 | 0.15 | 95 | 1010.6 |